Regional Weather Roundup
Issued by NWS

Home | Current Version | Previous Version | Text Only | Print | Product List | Glossary On
Versions: 1 2 3 4 5 6 7 8 9 10 11 12 13 14 15 16 17 18 19 20 21 22 23 24 25 26 27 28 29 30 31 32 33 34 35 36 37 38 39 40 41 42 43 44 45 46 47 48 49 50
000
ASCA42 TJSJ 241910
RWRPR
PUERTO RICO/U.S. VIRGIN ISLANDS HOURLY WEATHER ROUNDUP
NATIONAL WEATHER SERVICE SAN JUAN PR
300 PM AST FRI MAY 24 2019

PRZ001>002-007>008-010-242000-
PUERTO RICO

CITY           SKY/WX    TMP DP  RH WIND       PRES   REMARKS
SAN JUAN LMM   LGT RAIN  84  73  70 SE7       29.93F HX  91
AGUADILLA      CLOUDY    73  72  94 SE5       29.96S
CEIBA          PTSUNNY   82  72  69 E10       29.96S
$$

VIZ001>002-242000-
U.S. VIRGIN ISLANDS

CITY           SKY/WX    TMP DP  RH WIND       PRES   REMARKS
CHARLOTTE AMA  MOSUNNY   84  72  65 SE13      29.94F
CHRISTIANSTED  MOSUNNY   84  73  70 SE12      29.95F HX  91
$$

HOURLY WEATHER ROUNDUP FOR THE NEWS MEDIA

CITY           SKY/WX    TMP DP  RH WIND       PRES   REMARKS
ORLANDO        FAIR      88  63  43 E10       30.12F
NEW YORK       PTSUNNY   74  53  48 NW29G40   29.92S
NEWARK         PTSUNNY   76  49  38 NW25G36   29.94R
CHICAGO        CLOUDY    63  55  75 SE10      30.04F
HARTFORD       CLOUDY    61  49  64 NE17      29.82R
BOSTON         PTSUNNY   63  48  58 NE15      29.83
DALLAS         PTSUNNY   89  67  47 S16G26    30.01F HX  92
PHILADELPHIA   FAIR      79  49  34 NW20G29   29.97S
LOS ANGELES    MOSUNNY   67  50  54 W12       29.99S
WASHINGTON DC  FAIR      82  52  35 W14G23    30.03F



USA.gov is the U.S. government's official web portal to all federal, state and local government web resources and services.